TimeEST,TemperatureF,Dew PointF,Humidity,Sea Level PressureIn,VisibilityMPH,Wind Direction,Wind SpeedMPH,Gust SpeedMPH,PrecipitationIn,Events,Conditions,WindDirDegrees,DateUTC
12:15 AM,30.6,30.0,98,30.43,7.0,Calm,Calm,-,N/A,,Clear,0,2012-11-17 05:15:00
12:35 AM,30.4,30.0,99,30.43,10.0,Calm,Calm,-,N/A,,Clear,0,2012-11-17 05:35:00
12:55 AM,30.0,29.5,98,30.43,7.0,Calm,Calm,-,N/A,,Clear,0,2012-11-17 05:55:00
1:15 AM,30.4,30.2,99,30.43,10.0,Calm,Calm,-,N/A,,Clear,0,2012-11-17 06:15:00
1:35 AM,30.4,30.2,99,30.43,10.0,Calm,Calm,-,N/A,,Clear,0,2012-11-17 06:35:00
1:55 AM,30.9,30.4,98,30.44,7.0,NNW,3.5,-,N/A,,Clear,330,2012-11-17 06:55:00
2:15 AM,31.1,30.7,99,30.44,7.0,NW,3.5,-,N/A,,Clear,320,2012-11-17 07:15:00
2:35 AM,31.6,31.1,98,30.44,10.0,NNW,3.5,-,N/A,,Clear,330,2012-11-17 07:35:00
2:55 AM,31.8,31.5,99,30.44,7.0,NW,3.5,-,N/A,,Clear,320,2012-11-17 07:55:00
3:15 AM,32.0,31.5,98,30.45,10.0,NNW,3.5,-,N/A,,Clear,330,2012-11-17 08:15:00
3:35 AM,32.0,31.3,97,30.45,10.0,Calm,Calm,-,N/A,,Clear,0,2012-11-17 08:35:00
3:55 AM,31.6,31.1,98,30.46,7.0,NNW,3.5,-,N/A,,Clear,330,2012-11-17 08:55:00
4:15 AM,32.0,31.8,99,30.46,10.0,NW,3.5,-,N/A,,Clear,320,2012-11-17 09:15:00
4:35 AM,32.0,31.3,97,30.46,10.0,NW,3.5,-,N/A,,Clear,320,2012-11-17 09:35:00
4:55 AM,32.0,31.1,96,30.47,10.0,NW,3.5,-,N/A,,Clear,320,2012-11-17 09:55:00
5:15 AM,32.2,31.6,98,30.47,10.0,NW,3.5,-,N/A,,Clear,320,2012-11-17 10:15:00
5:35 AM,32.9,31.8,96,30.48,10.0,Calm,Calm,-,N/A,,Clear,0,2012-11-17 10:35:00
5:55 AM,32.7,31.8,96,30.48,10.0,Calm,Calm,-,N/A,,Clear,0,2012-11-17 10:55:00
6:15 AM,32.4,31.3,96,30.49,10.0,Calm,Calm,-,N/A,,Clear,0,2012-11-17 11:15:00
6:35 AM,31.8,30.9,96,30.49,10.0,NW,3.5,-,N/A,,Clear,320,2012-11-17 11:35:00
6:55 AM,30.9,30.0,96,30.50,7.0,Calm,Calm,-,N/A,,Clear,0,2012-11-17 11:55:00
7:15 AM,31.1,30.4,97,30.51,7.0,Calm,Calm,-,N/A,,Clear,0,2012-11-17 12:15:00
7:35 AM,30.9,30.4,98,30.51,5.0,Calm,Calm,-,N/A,,Clear,0,2012-11-17 12:35:00
7:55 AM,33.4,32.9,98,30.52,7.0,Calm,Calm,-,N/A,,Clear,0,2012-11-17 12:55:00
8:15 AM,37.6,34.7,89,30.53,10.0,NNW,3.5,-,N/A,,Clear,340,2012-11-17 13:15:00
8:35 AM,40.3,34.7,80,30.54,10.0,NNW,4.6,-,N/A,,Clear,340,2012-11-17 13:35:00
8:55 AM,42.1,34.3,74,30.54,10.0,North,4.6,-,N/A,,Clear,350,2012-11-17 13:55:00
9:15 AM,43.7,33.1,66,30.55,10.0,North,5.8,-,N/A,,Clear,360,2012-11-17 14:15:00
9:35 AM,45.1,32.9,62,30.55,10.0,North,5.8,-,N/A,,Clear,360,2012-11-17 14:35:00
9:55 AM,46.4,32.5,59,30.55,10.0,North,9.2,-,N/A,,Clear,360,2012-11-17 14:55:00
10:15 AM,47.3,32.9,57,30.56,10.0,North,9.2,-,N/A,,Clear,10,2012-11-17 15:15:00
10:35 AM,48.2,33.4,57,30.56,10.0,North,8.1,-,N/A,,Clear,360,2012-11-17 15:35:00
10:55 AM,49.3,34.0,56,30.56,10.0,North,8.1,-,N/A,,Clear,360,2012-11-17 15:55:00
11:15 AM,49.6,34.0,55,30.55,10.0,North,9.2,-,N/A,,Clear,360,2012-11-17 16:15:00
11:35 AM,50.5,34.3,54,30.54,10.0,North,6.9,-,N/A,,Clear,10,2012-11-17 16:35:00
12:55 PM,52.7,31.1,44,30.54,10.0,North,9.2,-,N/A,,Clear,360,2012-11-17 17:55:00
1:15 PM,52.7,30.4,42,30.53,10.0,North,9.2,-,N/A,,Clear,360,2012-11-17 18:15:00
1:35 PM,52.5,29.8,42,30.53,10.0,North,9.2,-,N/A,,Clear,10,2012-11-17 18:35:00
1:55 PM,53.1,30.4,42,30.52,10.0,North,8.1,-,N/A,,Clear,10,2012-11-17 18:55:00
2:15 PM,52.9,29.7,41,30.52,10.0,North,9.2,-,N/A,,Clear,10,2012-11-17 19:15:00
2:35 PM,52.9,30.7,43,30.51,10.0,North,8.1,-,N/A,,Clear,360,2012-11-17 19:35:00
2:55 PM,53.1,32.2,45,30.52,10.0,NE,8.1,-,N/A,,Clear,50,2012-11-17 19:55:00
3:15 PM,52.5,32.9,47,30.54,10.0,NE,8.1,-,N/A,,Clear,50,2012-11-17 20:15:00
3:35 PM,50.9,33.8,52,30.54,10.0,NNE,6.9,-,N/A,,Clear,20,2012-11-17 20:35:00
3:55 PM,50.2,34.7,55,30.54,10.0,NNE,5.8,-,N/A,,Clear,30,2012-11-17 20:55:00
4:15 PM,49.6,35.2,58,30.54,10.0,North,3.5,-,N/A,,Scattered Clouds,350,2012-11-17 21:15:00
4:35 PM,48.4,35.2,60,30.54,10.0,North,4.6,-,N/A,,Scattered Clouds,350,2012-11-17 21:35:00
4:55 PM,47.5,35.6,63,30.54,10.0,North,3.5,-,N/A,,Clear,350,2012-11-17 21:55:00
5:15 PM,46.4,35.6,66,30.55,10.0,Calm,Calm,-,N/A,,Clear,0,2012-11-17 22:15:00
5:35 PM,45.7,35.6,68,30.54,10.0,NNW,3.5,-,N/A,,Clear,340,2012-11-17 22:35:00
5:55 PM,44.8,35.8,71,30.55,10.0,Calm,Calm,-,N/A,,Clear,0,2012-11-17 22:55:00
6:15 PM,44.6,36.0,72,30.55,10.0,Calm,Calm,-,N/A,,Clear,0,2012-11-17 23:15:00
6:35 PM,44.2,36.5,74,30.55,10.0,North,3.5,-,N/A,,Scattered Clouds,350,2012-11-17 23:35:00
7:15 PM,44.8,36.9,74,30.55,10.0,NNW,4.6,-,N/A,,Mostly Cloudy,340,2012-11-18 00:15:00
7:35 PM,45.0,37.0,74,30.55,10.0,North,4.6,-,N/A,,Mostly Cloudy,350,2012-11-18 00:35:00
7:55 PM,44.6,36.9,74,30.55,10.0,NNW,3.5,-,N/A,,Scattered Clouds,340,2012-11-18 00:55:00
8:15 PM,44.8,36.9,74,30.55,10.0,North,3.5,-,N/A,,Clear,360,2012-11-18 01:15:00
8:35 PM,44.8,37.0,74,30.55,10.0,North,3.5,-,N/A,,Clear,360,2012-11-18 01:35:00
8:55 PM,44.1,37.2,77,30.56,10.0,Calm,Calm,-,N/A,,Clear,0,2012-11-18 01:55:00
9:15 PM,43.9,37.6,78,30.56,10.0,Calm,Calm,-,N/A,,Scattered Clouds,0,2012-11-18 02:15:00
9:35 PM,44.6,38.3,79,30.56,10.0,NNW,3.5,-,N/A,,Overcast,340,2012-11-18 02:35:00
9:55 PM,44.8,38.3,78,30.56,10.0,NNW,4.6,-,N/A,,Mostly Cloudy,340,2012-11-18 02:55:00
10:15 PM,44.6,38.7,80,30.56,10.0,NNW,3.5,-,N/A,,Scattered Clouds,340,2012-11-18 03:15:00
10:35 PM,44.1,38.8,82,30.55,10.0,NNW,3.5,-,N/A,,Scattered Clouds,340,2012-11-18 03:35:00
10:55 PM,43.9,38.8,82,30.55,10.0,Calm,Calm,-,N/A,,Clear,0,2012-11-18 03:55:00
11:15 PM,43.9,39.4,84,30.55,10.0,NNW,3.5,-,N/A,,Scattered Clouds,340,2012-11-18 04:15:00
11:35 PM,44.6,40.1,84,30.54,10.0,Calm,Calm,-,N/A,,Overcast,0,2012-11-18 04:35:00
11:55 PM,44.6,40.1,84,30.54,10.0,North,3.5,-,N/A,,Overcast,360,2012-11-18 04:55:00